Location: Wildlife_Club
(35.6000°N, 81.4330°W)
Time: 22:07:39
(UTC-04:00)

Vanguard 2 Rocket - Pass Details

Date: 24 June 2019
Orbit: 554 x 3326 km, 32.9° (Epoch: 22 July)

Event Time Altitude Azimuth Distance (km) Brightness Sun altitude
Rises 23:59:43 0° 262° (W) 4,038 10.4 -27.4°
Reaches altitude 10° 00:01:58 10° 260° (W) 3,335 9.9 -27.6°
Maximum altitude 00:10:48 79° 176° (S) 1,961 8.3 -28.2°
Drops below altitude 10° 00:26:49 10° 93° (E) 5,696 10.7 -29.2°
Sets 00:31:59 0° 93° (E) 6,998 11.3 -29.5°
